DW8024 Weather Reports


Display with metric or nautical units.
time (UTC)temp
F
wind
direction
speed
MPH
gust
MPH
rain 1hr
in
rain 24hr
in
rain mn
in
humidity
%
barometer
mb
20240623081950 66 256 4.0 12.0 0.00 0.00 0.00 78 1018.0
20240623081456 66 264 6.0 12.0 0.00 0.00 0.00 79 1018.0
20240623080950 65 270 7.0 12.0 0.00 0.00 0.00 80 1018.0
20240623080451 65 267 5.0 10.0 0.00 0.00 0.00 80 1018.1
20240623075957 65 266 5.0 10.0 0.00 0.00 0.00 80 1018.2
20240623075451 64 272 6.0 11.0 0.00 0.00 0.00 80 1018.1
20240623074950 64 274 7.0 12.0 0.00 0.00 0.00 80 1018.2
20240623073450 64 270 5.0 10.0 0.00 0.00 0.00 82 1018.0
20240623072955 63 249 5.0 10.0 0.00 0.00 0.00 82 1017.9
20240623072451 63 235 4.0 10.0 0.00 0.00 0.00 82 1017.9
20240623071950 63 257 4.0 9.0 0.00 0.00 0.00 82 1017.9
20240623071456 63 269 5.0 9.0 0.00 0.00 0.00 82 1017.8
20240623070951 63 256 4.0 9.0 0.00 0.00 0.00 82 1017.8
20240623070451 63 240 3.0 8.0 0.00 0.00 0.00 82 1017.8
20240623065955 63 233 4.0 8.0 0.00 0.00 0.00 82 1017.7
20240623065450 63 239 4.0 8.0 0.00 0.00 0.00 82 1017.7
20240623064949 63 245 3.0 8.0 0.00 0.00 0.00 83 1017.7
20240623064455 63 238 3.0 8.0 0.00 0.00 0.00 83 1017.6
20240623063950 62 229 4.0 9.0 0.00 0.00 0.00 83 1017.6
20240623063450 62 231 4.0 9.0 0.00 0.00 0.00 83 1017.7
20240623062956 62 212 3.0 8.0 0.00 0.00 0.00 84 1017.6
20240623062450 61 192 3.0 5.0 0.00 0.00 0.00 84 1017.6
20240623061456 60 192 3.0 4.0 0.00 0.00 0.00 84 1017.5
20240623060950 60 187 3.0 7.0 0.00 0.00 0.00 84 1017.5
20240623055955 59 172 4.0 8.0 0.00 0.00 0.00 85 1017.5
20240623055450 59 168 4.0 8.0 0.00 0.00 0.00 85 1017.5
20240623054950 59 174 4.0 8.0 0.00 0.00 0.00 84 1017.5
20240623054455 58 175 4.0 8.0 0.00 0.00 0.00 85 1017.5
20240623053949 58 168 4.0 8.0 0.00 0.00 0.00 84 1017.5
20240623053450 58 166 4.0 8.0 0.00 0.00 0.00 84 1017.4
20240623052450 58 175 4.0 8.0 0.00 0.00 0.00 84 1017.5
20240623051950 58 181 3.0 8.0 0.00 0.00 0.00 84 1017.4
20240623051456 58 183 2.0 5.0 0.00 0.00 0.00 85 1017.4
20240623045450 58 181 3.0 8.0 0.00 0.00 0.00 84 1017.4
20240623044950 58 174 3.0 8.0 0.00 0.00 0.00 84 1017.3
20240623044455 58 176 2.0 4.0 0.00 0.00 0.00 84 1017.3
20240623043950 57 174 2.0 4.0 0.00 0.00 0.00 84 1017.3
20240623042954 57 174 2.0 5.0 0.00 0.00 0.00 84 1017.2
20240623041455 57 166 3.0 4.0 0.00 0.00 0.00 84 1017.1
20240623040951 57 166 3.0 4.0 0.00 0.00 0.00 84 1017.1
20240623040450 57 170 2.0 4.0 0.00 0.00 0.00 84 1017.0
20240623035955 57 170 2.0 5.0 0.00 0.00 0.00 84 1017.0
20240623035450 57 167 2.0 5.0 0.00 0.00 0.00 84 1016.9
20240623034949 57 173 2.0 4.0 0.00 0.01 0.00 84 1016.9
20240623034455 57 184 2.0 3.0 0.00 0.01 0.00 84 1016.9
20240623033950 56 172 2.0 3.0 0.00 0.01 0.00 83 1016.8
20240623033450 56 165 2.0 4.0 0.00 0.01 0.00 83 1016.7
20240623032955 56 161 2.0 4.0 0.00 0.01 0.00 83 1016.8
20240623031950 56 163 2.0 3.0 0.00 0.01 0.00 83 1016.6
20240623031456 56 152 1.0 4.0 0.00 0.01 0.00 83 1016.6
20240623030950 56 143 1.0 4.0 0.00 0.01 0.00 83 1016.5
20240623030449 56 150 2.0 3.0 0.00 0.01 0.00 83 1016.5
20240623024949 56 166 1.0 3.0 0.00 0.01 0.00 83 1016.4
20240623024455 56 166 1.0 3.0 0.00 0.01 0.00 83 1016.4
20240623023951 56 166 2.0 3.0 0.00 0.01 0.00 83 1016.4
20240623023449 56 162 2.0 3.0 0.00 0.01 0.00 83 1016.4
20240623022955 56 158 2.0 3.0 0.00 0.01 0.00 83 1016.4
20240623020950 56 151 3.0 6.0 0.00 0.01 0.00 83 1016.3
20240623020451 56 161 2.0 4.0 0.00 0.01 0.00 83 1016.3
20240623015449 56 152 3.0 6.0 0.00 0.01 0.00 83 1016.3
20240623014455 56 139 3.0 4.0 0.00 0.01 0.00 83 1016.3
20240623013950 56 135 2.0 4.0 0.00 0.01 0.00 83 1016.3
20240623013449 56 136 2.0 4.0 0.00 0.01 0.00 83 1016.3
20240623012955 56 138 2.0 4.0 0.00 0.01 0.00 83 1016.3
20240623012449 56 138 2.0 4.0 0.00 0.01 0.00 83 1016.2
20240623011949 56 139 2.0 4.0 0.00 0.01 0.00 83 1016.2
20240623011456 56 139 3.0 4.0 0.00 0.01 0.00 83 1016.1
20240623010949 56 136 2.0 4.0 0.00 0.01 0.00 83 1016.1
20240623010449 56 135 2.0 4.0 0.00 0.01 0.00 83 1016.0
20240623005955 56 135 1.0 4.0 0.00 0.01 0.00 83 1016.0
20240623005450 56 135 1.0 2.0 0.00 0.01 0.00 82 1016.1
20240623004949 56 135 2.0 4.0 0.00 0.01 0.00 82 1016.0
20240623004454 56 138 2.0 4.0 0.00 0.01 0.00 82 1016.0
20240623003949 56 138 2.0 4.0 0.00 0.01 0.00 82 1016.0
20240623002955 56 142 2.0 4.0 0.00 0.01 0.00 82 1015.9
20240623002449 56 153 2.0 4.0 0.00 0.01 0.00 82 1015.9
20240623001949 56 164 1.0 2.0 0.00 0.01 0.00 82 1015.9
20240623001455 56 164 1.0 3.0 0.00 0.01 0.00 82 1016.0
20240623000949 56 160 1.0 4.0 0.00 0.01 0.00 82 1015.8
20240623000449 56 152 2.0 4.0 0.00 0.01 0.00 82 1015.8
20240622235956 56 152 2.0 3.0 0.00 0.01 0.00 82 1015.8
20240622235449 56 158 2.0 3.0 0.00 0.01 0.00 82 1015.8
20240622234949 56 159 2.0 3.0 0.00 0.01 0.00 82 1015.8
20240622233950 56 158 2.0 3.0 0.00 0.01 0.00 83 1015.8
20240622233449 56 160 1.0 3.0 0.00 0.01 0.00 83 1015.8
20240622232450 55 164 2.0 3.0 0.00 0.01 0.00 83 1015.8
20240622231454 55 172 2.0 3.0 0.00 0.01 0.00 83 1015.7
20240622230950 55 182 1.0 3.0 0.00 0.01 0.00 83 1015.7
20240622230449 55 189 1.0 3.0 0.00 0.01 0.00 83 1015.8
20240622230008 55 193 1.0 3.0 0.00 0.01 0.00 83 1015.8
20240622225449 55 195 1.0 2.0 0.00 0.01 0.01 83 1015.8
20240622224454 56 219 2.0 3.0 0.00 0.01 0.01 82 1015.8
20240622223950 56 253 1.0 3.0 0.00 0.01 0.01 82 1015.8
20240622223448 56 0 0.0 2.0 0.00 0.01 0.01 82 1015.8
20240622222954 56 0 0.0 1.0 0.00 0.01 0.01 81 1015.8
20240622222449 56 280 1.0 2.0 0.00 0.01 0.01 81 1015.8
20240622221455 56 280 1.0 3.0 0.00 0.01 0.01 80 1015.8
20240622220950 56 280 1.0 3.0 0.00 0.01 0.01 80 1015.7
20240622220449 57 280 1.0 3.0 0.00 0.01 0.01 80 1015.7
20240622215954 57 280 1.0 3.0 0.00 0.01 0.01 80 1015.7
20240622215449 57 280 2.0 4.0 0.00 0.01 0.01 79 1015.7
20240622214949 57 281 2.0 4.0 0.00 0.01 0.01 79 1015.7
20240622214454 57 288 2.0 4.0 0.00 0.01 0.01 79 1015.6
20240622213448 57 318 1.0 3.0 0.00 0.01 0.01 79 1015.7
20240622212954 58 317 1.0 3.0 0.00 0.01 0.01 78 1015.6
20240622211950 58 318 1.0 3.0 0.00 0.01 0.01 77 1015.5
20240622210949 58 318 2.0 4.0 0.00 0.01 0.01 77 1015.4
20240622210449 58 311 2.0 4.0 0.00 0.01 0.01 76 1015.4
20240622205954 59 302 3.0 4.0 0.00 0.01 0.01 76 1015.2
20240622205449 59 296 3.0 5.0 0.00 0.01 0.01 76 1015.0
20240622204949 59 291 3.0 5.0 0.00 0.01 0.01 75 1015.0
20240622203449 60 304 4.0 7.0 0.00 0.01 0.01 74 1014.8
20240622202954 60 306 4.0 9.0 0.00 0.01 0.01 74 1014.8
20240622202448 60 305 4.0 9.0 0.00 0.01 0.01 73 1014.7
20240622201949 60 299 5.0 10.0 0.00 0.01 0.01 73 1014.7
20240622201454 61 299 5.0 10.0 0.00 0.01 0.01 72 1014.5
20240622200949 61 301 5.0 10.0 0.00 0.01 0.01 72 1014.4
20240622200449 61 303 5.0 10.0 0.00 0.01 0.01 72 1014.3
20240622195450 62 298 5.0 10.0 0.00 0.01 0.01 71 1014.2
20240622194950 62 295 5.0 10.0 0.00 0.01 0.01 70 1014.2
20240622194453 62 288 5.0 12.0 0.00 0.01 0.01 70 1014.1
20240622193448 62 285 5.0 10.0 0.00 0.01 0.01 69 1014.0
20240622192953 63 280 6.0 10.0 0.00 0.01 0.01 69 1013.9
20240622192449 63 283 5.0 11.0 0.00 0.01 0.01 68 1013.9
20240622191949 63 287 5.0 11.0 0.00 0.01 0.01 68 1014.0
20240622191454 63 286 5.0 10.0 0.00 0.01 0.01 67 1013.9
20240622190948 64 285 5.0 10.0 0.00 0.01 0.01 67 1013.8
20240622190449 64 283 5.0 11.0 0.00 0.01 0.01 66 1013.8
20240622185954 64 290 5.0 11.0 0.00 0.01 0.01 67 1013.8
20240622185448 64 297 6.0 13.0 0.00 0.01 0.01 66 1013.8
20240622184949 65 296 6.0 13.0 0.00 0.01 0.01 66 1013.7
20240622184454 65 291 5.0 9.0 0.00 0.01 0.01 65 1013.7
20240622183948 65 281 5.0 9.0 0.00 0.01 0.01 65 1013.6
20240622183448 66 286 5.0 10.0 0.00 0.01 0.01 64 1013.5
20240622182955 66 298 6.0 11.0 0.00 0.01 0.01 63 1013.5
20240622182449 66 299 6.0 11.0 0.00 0.01 0.01 63 1013.5
20240622181948 66 287 6.0 11.0 0.00 0.01 0.01 63 1013.4
20240622181455 66 278 6.0 11.0 0.00 0.01 0.01 63 1013.3
20240622180949 66 275 7.0 13.0 0.00 0.01 0.01 63 1013.3
20240622175954 67 284 6.0 12.0 0.00 0.01 0.01 62 1013.3
20240622175448 67 286 7.0 14.0 0.00 0.01 0.01 62 1013.1
20240622174948 67 283 8.0 15.0 0.00 0.01 0.01 61 1013.3
20240622174454 67 280 7.0 15.0 0.00 0.01 0.01 60 1013.2
20240622173948 67 294 6.0 11.0 0.00 0.01 0.01 61 1013.2
20240622173448 68 293 7.0 13.0 0.00 0.01 0.01 61 1013.1
20240622172954 68 280 7.0 13.0 0.00 0.01 0.01 59 1013.0
20240622172448 68 268 4.0 10.0 0.00 0.01 0.01 61 1012.9
20240622171948 68 269 5.0 10.0 0.00 0.01 0.01 61 1012.8
20240622170948 68 290 6.0 13.0 0.00 0.01 0.01 61 1012.7
20240622165448 68 280 4.0 10.0 0.00 0.01 0.01 60 1012.8
20240622164453 67 282 3.0 10.0 0.00 0.01 0.01 63 1012.7
20240622163949 67 277 5.0 12.0 0.00 0.01 0.01 63 1012.8
20240622163447 67 283 6.0 15.0 0.00 0.01 0.01 62 1012.8
20240622162953 67 284 7.0 15.0 0.00 0.01 0.01 61 1012.8
20240622162448 67 278 6.0 14.0 0.00 0.01 0.01 62 1012.7
20240622161948 67 274 4.0 9.0 0.00 0.01 0.01 61 1012.8
20240622161453 67 276 4.0 10.0 0.00 0.01 0.01 61 1012.7
20240622160948 68 266 6.0 12.0 0.00 0.01 0.01 59 1012.7
20240622155955 69 237 5.0 11.0 0.00 0.01 0.01 61 1012.6
20240622155448 69 245 5.0 12.0 0.00 0.01 0.01 57 1012.7
20240622154949 69 262 5.0 12.0 0.00 0.01 0.01 58 1012.8
20240622154454 69 270 3.0 10.0 0.00 0.01 0.01 59 1012.7
20240622153949 68 240 3.0 12.0 0.00 0.01 0.01 61 1012.7
20240622153447 68 226 4.0 12.0 0.00 0.01 0.01 61 1012.7
20240622152954 69 247 5.0 12.0 0.00 0.01 0.01 59 1012.7
20240622152448 69 267 6.0 12.0 0.00 0.01 0.01 57 1012.7
20240622151948 69 275 6.0 12.0 0.00 0.01 0.01 58 1012.7
20240622151454 69 283 5.0 12.0 0.00 0.01 0.01 63 1012.8
20240622150448 68 262 5.0 11.0 0.00 0.01 0.01 60 1012.8
20240622145953 68 259 4.0 11.0 0.00 0.01 0.01 62 1012.8
20240622145448 68 246 5.0 12.0 0.00 0.01 0.01 63 1012.7
20240622144948 67 260 6.0 13.0 0.00 0.01 0.01 61 1012.7
20240622144453 67 283 6.0 14.0 0.00 0.01 0.01 62 1012.7
20240622143948 67 290 7.0 14.0 0.00 0.01 0.01 63 1012.6
20240622142954 66 288 6.0 11.0 0.00 0.01 0.01 62 1012.7
20240622142449 66 295 6.0 13.0 0.00 0.01 0.01 64 1012.7
20240622141949 66 290 6.0 13.0 0.00 0.01 0.01 63 1012.8
20240622141453 66 286 6.0 12.0 0.00 0.01 0.01 62 1012.8
20240622140948 67 283 7.0 14.0 0.00 0.01 0.01 60 1012.8
20240622140449 68 285 8.0 14.0 0.00 0.01 0.01 59 1012.8
20240622135954 67 289 9.0 14.0 0.00 0.01 0.01 63 1012.7
20240622135448 67 282 9.0 16.0 0.00 0.01 0.01 60 1012.6
20240622134948 67 282 9.0 16.0 0.00 0.01 0.01 60 1012.7
20240622134453 68 288 9.0 17.0 0.00 0.01 0.01 61 1012.6
20240622133447 67 291 7.0 14.0 0.00 0.01 0.01 62 1012.5
20240622132953 67 288 7.0 15.0 0.00 0.01 0.01 62 1012.4
20240622132448 67 287 7.0 15.0 0.00 0.01 0.01 59 1012.5
20240622131947 68 281 6.0 13.0 0.00 0.01 0.01 57 1012.4
20240622131454 67 274 6.0 13.0 0.00 0.01 0.01 59 1012.3
20240622130448 68 293 8.0 16.0 0.00 0.01 0.01 57 1012.3
20240622125953 69 302 8.0 15.0 0.00 0.01 0.01 56 1012.3
20240622125447 69 294 7.0 14.0 0.00 0.01 0.01 60 1012.4
20240622124453 68 285 8.0 14.0 0.00 0.01 0.01 58 1012.3
20240622123949 68 285 8.0 15.0 0.00 0.01 0.01 58 1012.3
20240622123448 68 287 6.0 15.0 0.00 0.01 0.01 58 1012.3
20240622122954 68 286 7.0 14.0 0.00 0.01 0.01 58 1012.2
20240622122448 68 268 6.0 14.0 0.00 0.01 0.01 58 1012.2
20240622121947 67 245 5.0 12.0 0.00 0.01 0.01 57 1012.1
20240622121455 67 260 5.0 12.0 0.00 0.01 0.01 55 1012.2
20240622115447 67 276 8.0 13.0 0.00 0.01 0.01 60 1012.0
20240622114947 67 270 7.0 14.0 0.00 0.01 0.01 58 1012.0
20240622113947 67 300 7.0 15.0 0.00 0.01 0.01 62 1011.9
20240622112447 67 265 6.0 15.0 0.00 0.01 0.01 66 1011.9
20240622111947 66 262 7.0 15.0 0.00 0.01 0.01 67 1011.8
20240622111453 65 264 7.0 15.0 0.00 0.01 0.01 69 1011.8
20240622105953 65 270 9.0 15.0 0.00 0.01 0.01 68 1011.6
20240622104948 64 280 6.0 11.0 0.00 0.01 0.01 70 1011.5
20240622103948 65 285 7.0 13.0 0.00 0.01 0.01 68 1011.5
20240622103447 64 275 6.0 13.0 0.00 0.01 0.01 72 1011.5
20240622102953 64 272 8.0 14.0 0.00 0.01 0.01 72 1011.5
20240622102448 64 277 8.0 14.0 0.00 0.01 0.01 67 1011.5
20240622101948 65 264 6.0 13.0 0.00 0.01 0.01 67 1011.5
20240622101452 65 253 6.0 13.0 0.00 0.01 0.01 69 1011.4
20240622100948 65 274 6.0 13.0 0.00 0.01 0.01 70 1011.4
20240622100447 65 280 6.0 11.0 0.00 0.01 0.01 71 1011.4
20240622095953 64 273 7.0 14.0 0.00 0.01 0.01 74 1011.3
20240622095447 64 281 6.0 14.0 0.00 0.01 0.01 73 1011.3
20240622094947 64 300 5.0 11.0 0.00 0.01 0.01 74 1011.3
20240622094453 63 294 6.0 12.0 0.00 0.01 0.01 76 1011.2
20240622093447 63 280 7.0 14.0 0.00 0.01 0.01 77 1011.2
20240622092952 62 290 7.0 12.0 0.00 0.01 0.01 78 1011.1
20240622092448 61 278 6.0 12.0 0.00 0.01 0.01 79 1011.2
20240622091947 60 270 7.0 14.0 0.00 0.01 0.01 80 1011.1
20240622091453 60 272 7.0 14.0 0.00 0.01 0.01 80 1011.1
20240622090947 60 275 7.0 11.0 0.00 0.01 0.01 81 1011.1
20240622090448 60 272 7.0 14.0 0.00 0.01 0.01 81 1011.0
20240622085446 60 296 7.0 12.0 0.00 0.01 0.01 82 1011.0
20240622084453 59 278 6.0 11.0 0.00 0.01 0.01 83 1010.9
20240622083947 59 273 6.0 11.0 0.00 0.01 0.01 83 1011.0
20240622083447 59 272 7.0 12.0 0.00 0.01 0.01 83 1011.0
20240622082953 59 274 8.0 12.0 0.00 0.01 0.01 83 1010.9
20240622082447 59 276 8.0 13.0 0.00 0.01 0.01 82 1011.0